• In Netherlands
  • List of Countries
  • For 7 days
  • Water Temperature
  • Satellite Maps
  • Weather Map
  • Weather Widgets
  • user-avatar
    Login

    Hourly Weather Hrazdan

    Today, 24 March, Friday

    Time Temperature Precipitation Wind Pressure Humidity
    00:00 -6°C° 0 mm 1 mps 610 mmHg 92%
    01:00 -6°C° 0 mm 1 mps 610 mmHg 92%
    02:00 -7°C° 0 mm 1 mps 610 mmHg 92%
    03:00 -7°C° 0 mm 1 mps 610 mmHg 92%
    04:00 -7°C° 0 mm 1 mps 610 mmHg 92%
    05:00 -8°C° 0 mm 1 mps 610 mmHg 92%
    06:00 -8°C° 0 mm 1 mps 610 mmHg 92%
    07:00 -4°C° 0 mm 1 mps 611 mmHg 86%
    08:00 -2°C° 0 mm 1 mps 612 mmHg 80%
    09:00 +1°C° 0 mm 1 mps 613 mmHg 74%
    10:00 +2°C° 0 mm 1 mps 613 mmHg 72%
    11:00 +3°C° 0 mm 1 mps 613 mmHg 71%
    12:00 +4°C° 0 mm 1 mps 613 mmHg 69%
    13:00 +4°C° 0 mm 1 mps 613 mmHg 69%
    14:00 +5°C° 0 mm 1 mps 613 mmHg 69%
    15:00 +5°C° 0 mm 1 mps 613 mmHg 69%
    16:00 +3°C° 0 mm 1 mps 612 mmHg 76%
    17:00 +1°C° 0 mm 1 mps 612 mmHg 82%
    18:00 -1°C° 0 mm 1 mps 611 mmHg 89%
    19:00 -1°C° 0 mm 1 mps 611 mmHg 90%
    20:00 -2°C° 0 mm 1 mps 611 mmHg 91%
    21:00 -3°C° 0 mm 1 mps 611 mmHg 93%
    22:00 -3°C° 0 mm 1 mps 611 mmHg 92%
    23:00 -4°C° 0 mm 1 mps 611 mmHg 92%

    Tomorrow, 25 March, Saturday

    Time Temperature Precipitation Wind Pressure Humidity
    00:00 -4°C° 0 mm 1 mps 611 mmHg 92%
    01:00 -6°C° 0 mm 1 mps 610 mmHg 92%
    02:00 -6°C° 0 mm 1 mps 610 mmHg 92%
    03:00 -6°C° 0 mm 1 mps 610 mmHg 92%
    04:00 -7°C° 0 mm 1 mps 610 mmHg 91%
    05:00 -7°C° 0 mm 1 mps 609 mmHg 91%
    06:00 -7°C° 0 mm 1 mps 609 mmHg 90%
    07:00 -3°C° 0 mm 1 mps 610 mmHg 83%
    08:00 -1°C° 0 mm 0 mps 611 mmHg 76%
    09:00 +2°C° 0 mm 0 mps 612 mmHg 69%
    10:00 +4°C° 0 mm 1 mps 612 mmHg 66%
    11:00 +5°C° 0 mm 1 mps 612 mmHg 64%
    12:00 +6°C° 0 mm 1 mps 612 mmHg 61%
    13:00 +6°C° 0 mm 1 mps 611 mmHg 61%
    14:00 +7°C° 0 mm 1 mps 611 mmHg 62%
    15:00 +7°C° 0 mm 1 mps 610 mmHg 62%
    16:00 +5°C° 0 mm 1 mps 609 mmHg 70%
    17:00 +2°C° 0 mm 1 mps 608 mmHg 77%
    18:00 -1°C° 0 mm 0 mps 608 mmHg 84%
    19:00 -2°C° 0 mm 0 mps 608 mmHg 85%
    20:00 -3°C° 0 mm 0 mps 607 mmHg 86%
    21:00 -3°C° 0 mm 0 mps 607 mmHg 87%
    22:00 -3°C° 0 mm 0 mps 607 mmHg 87%
    23:00 -4°C° 0 mm 0 mps 608 mmHg 86%

    Day after tomorrow, 26 March, Sunday

    Time Temperature Precipitation Wind Pressure Humidity
    00:00 -4°C° 0 mm 0 mps 608 mmHg 86%
    01:00 -4°C° 0 mm 0 mps 607 mmHg 85%
    02:00 -4°C° 0 mm 0 mps 607 mmHg 85%
    03:00 -4°C° 0 mm 0 mps 607 mmHg 84%
    04:00 -3°C° 0 mm 1 mps 607 mmHg 83%
    05:00 -3°C° 0 mm 1 mps 607 mmHg 81%
    06:00 -3°C° 0 mm 1 mps 607 mmHg 80%
    07:00 -1°C° 0 mm 1 mps 608 mmHg 75%
    08:00 +1°C° 0 mm 1 mps 609 mmHg 69%
    09:00 +4°C° 0 mm 1 mps 610 mmHg 64%
    10:00 +5°C° 0 mm 1 mps 610 mmHg 61%
    11:00 +6°C° 0 mm 1 mps 610 mmHg 59%
    12:00 +7°C° 0 mm 1 mps 610 mmHg 57%
    13:00 +7°C° 0 mm 1 mps 610 mmHg 57%
    14:00 +7°C° 0 mm 1 mps 610 mmHg 58%
    15:00 +7°C° 0 mm 1 mps 610 mmHg 58%
    16:00 +5°C° 0 mm 1 mps 609 mmHg 64%
    17:00 +4°C° 0 mm 1 mps 609 mmHg 71%
    18:00 +2°C° 0 mm 1 mps 608 mmHg 77%
    19:00 +1°C° 0 mm 1 mps 609 mmHg 77%
    20:00 0°C° 0 mm 1 mps 609 mmHg 77%
    21:00 -1°C° 0 mm 1 mps 609 mmHg 77%
    22:00 -1°C° 0 mm 1 mps 609 mmHg 76%
    23:00 -1°C° 0 mm 1 mps 609 mmHg 74%

    27 March, Monday

    Time Temperature Precipitation Wind Pressure Humidity
    00:00 -1°C° 0 mm 1 mps 609 mmHg 73%
    01:00 -1°C° 0 mm 1 mps 609 mmHg 73%
    02:00 -2°C° 0 mm 1 mps 609 mmHg 73%
    03:00 -2°C° 0 mm 1 mps 609 mmHg 73%
    04:00 -2°C° 0 mm 1 mps 609 mmHg 73%
    05:00 -2°C° 0 mm 1 mps 609 mmHg 73%
    06:00 -2°C° 0 mm 1 mps 609 mmHg 72%
    07:00 0°C° 0 mm 1 mps 609 mmHg 67%
    08:00 +1°C° 0 mm 2 mps 610 mmHg 61%
    09:00 +4°C° 0 mm 2 mps 611 mmHg 55%
    10:00 +5°C° 0 mm 2 mps 611 mmHg 55%
    11:00 +6°C° 0 mm 2 mps 611 mmHg 54%
    12:00 +7°C° 0 mm 2 mps 610 mmHg 54%
    13:00 +7°C° 0 mm 2 mps 610 mmHg 55%
    14:00 +7°C° 0 mm 2 mps 610 mmHg 56%
    15:00 +7°C° 0 mm 2 mps 609 mmHg 57%
    16:00 +6°C° 0 mm 2 mps 609 mmHg 63%
    17:00 +4°C° 0 mm 2 mps 608 mmHg 70%
    18:00 +3°C° 0 mm 2 mps 608 mmHg 76%
    19:00 +2°C° 0 mm 2 mps 608 mmHg 77%
    20:00 +1°C° 0 mm 2 mps 608 mmHg 78%
    21:00 -1°C° 0 mm 2 mps 608 mmHg 79%
    22:00 -1°C° 0 mm 2 mps 608 mmHg 79%
    23:00 -1°C° 0 mm 2 mps 608 mmHg 79%

    28 March, Tuesday

    Time Temperature Precipitation Wind Pressure Humidity
    00:00 -1°C° 0 mm 2 mps 608 mmHg 80%
    01:00 -1°C° 0.1 mm 2 mps 608 mmHg 80%
    02:00 -1°C° 0.1 mm 2 mps 608 mmHg 81%
    03:00 -1°C° 0.1 mm 2 mps 608 mmHg 82%
    04:00 -1°C° 0.1 mm 2 mps 608 mmHg 82%
    05:00 -1°C° 0.1 mm 2 mps 607 mmHg 82%
    06:00 -1°C° 0.1 mm 2 mps 607 mmHg 82%
    07:00 +1°C° 0 mm 2 mps 608 mmHg 76%
    08:00 +2°C° 0 mm 3 mps 608 mmHg 70%
    09:00 +4°C° 0 mm 3 mps 608 mmHg 63%
    10:00 +5°C° 0 mm 3 mps 608 mmHg 61%
    11:00 +7°C° 0 mm 3 mps 608 mmHg 59%
    12:00 +8°C° 0 mm 3 mps 608 mmHg 57%
    13:00 +7°C° 0.2 mm 3 mps 607 mmHg 58%
    14:00 +7°C° 0.2 mm 3 mps 607 mmHg 60%
    15:00 +7°C° 0.2 mm 3 mps 607 mmHg 62%
    16:00 +6°C° 0.2 mm 2 mps 606 mmHg 68%
    17:00 +4°C° 0.2 mm 2 mps 606 mmHg 74%
    18:00 +4°C° 0.2 mm 1 mps 606 mmHg 81%
    19:00 +3°C° 0.2 mm 1 mps 606 mmHg 83%
    20:00 +3°C° 0.2 mm 1 mps 606 mmHg 85%
    21:00 +2°C° 0.2 mm 1 mps 607 mmHg 88%
    22:00 +2°C° 0.1 mm 1 mps 607 mmHg 89%
    23:00 +2°C° 0.1 mm 1 mps 607 mmHg 90%

    29 March, Wednesday

    Time Temperature Precipitation Wind Pressure Humidity
    00:00 +1°C° 0.1 mm 1 mps 607 mmHg 92%
    01:00 +1°C° 0.5 mm 1 mps 607 mmHg 92%
    02:00 +2°C° 0.5 mm 1 mps 607 mmHg 92%
    03:00 +2°C° 0.5 mm 1 mps 607 mmHg 93%
    04:00 +2°C° 0.8 mm 1 mps 607 mmHg 93%
    05:00 +1°C° 0.8 mm 1 mps 608 mmHg 94%
    06:00 +1°C° 0.8 mm 1 mps 608 mmHg 95%
    07:00 +2°C° 0.7 mm 1 mps 608 mmHg 93%
    08:00 +2°C° 0.7 mm 1 mps 609 mmHg 90%
    09:00 +2°C° 0.7 mm 1 mps 609 mmHg 88%
    10:00 +3°C° 0.8 mm 1 mps 609 mmHg 88%
    11:00 +3°C° 0.8 mm 1 mps 609 mmHg 88%
    12:00 +3°C° 0.8 mm 1 mps 609 mmHg 87%
    13:00 +3°C° 0.8 mm 1 mps 609 mmHg 87%
    14:00 +3°C° 0.8 mm 1 mps 609 mmHg 88%
    15:00 +3°C° 0.8 mm 1 mps 609 mmHg 88%
    16:00 +2°C° 0.4 mm 1 mps 610 mmHg 89%
    17:00 +2°C° 0.4 mm 1 mps 610 mmHg 89%
    18:00 +1°C° 0.4 mm 1 mps 610 mmHg 90%
    19:00 +1°C° 0.1 mm 1 mps 611 mmHg 91%
    20:00 0°C° 0.1 mm 1 mps 611 mmHg 92%
    21:00 -1°C° 0.1 mm 1 mps 612 mmHg 92%
    22:00 -1°C° 0.1 mm 1 mps 612 mmHg 93%
    23:00 -2°C° 0.1 mm 1 mps 612 mmHg 93%
    Show more